"Pseudo-MPEC" for ZTF02Ux

Created 2019 Feb 20 14:18:07 UT using Find_Orb

Click here for an explanation of pseudo-MPECs

 
 Astrometry: 
     ZTF02Ux  C2019 02 08.47139414 05 39.45 +19 44 44.9    ~28K3 17.43gUNEOCPI41
     ZTF02Ux  C2019 02 08.47174014 05 35.95 +19 45 00.0    ~28K3 17.43gUNEOCPI41
     ZTF02Ux  C2019 02 08.47276314 05 25.65 +19 45 46.0    ~28K3 17.49gUNEOCPI41
     ZTF02Ux  C2019 02 08.47311014 05 22.09 +19 46 01.0    ~28K3 17.49gUNEOCPI41
     ZTF02Ux  C2019 02 08.49065914 02 26.06 +19 58 31.7    ~28KI 17.42gUNEOCPI41
     ZTF02Ux  C2019 02 08.49100614 02 22.65 +19 58 46.4    ~28KI 17.42gUNEOCPI41

Station data:
(I41) Palomar Mountain--ZTF  (N33.357340 W116.859780)  US/California. 1.2-m
   f/2.44 Oschin Schmidt + CCD.

Orbital elements:  ZTF02Ux
   Perigee 2019 Feb 7.506933 +/- 0.802 TT = 12:09:59 (JD 2458522.006933)
Epoch 2019 Feb  8.0 TT = JDT 2458522.5                        AutoNEOCP
M   0.60186741 +/- 55               (J2000 equator)
n   1.22066120 +/-                  Peri.  293.57944 +/- 70
a   0.01251069 +/-                  Node   254.39324 +/- 5.3
e   0.9689022 +/- 0.516             Incl.  151.86884 +/- 0.06
P 294.92d                  H 29.5   G  0.15   U 15.4  
q 58201.6730 +/- 66594    Q 0.02463232 +/- 0.177
From 6 observations 2019 Feb. 8 (28.2 min); mean residual 0".25
Residuals in arcseconds: 
190208 I41  .07-  .10+    190208 I41  .47+  .27+    190208 I41  .31-  .20-    
190208 I41  .09-  .23-    190208 I41  .30-  .12-    190208 I41  .30+  .20+    

Ephemerides (geocentric):
Date (UTC) HH   RA              Dec         delta   r     elong  mag " sig PA
---- -- -- --  -------------   -----------  ------ ------ -----  --- ---- ---
2019 02 20 14  10 48 01.046   +27 31 32.22  .00794 0.9962 161.6 19.9 304'  95
2019 02 20 15  10 47 52.358   +27 31 18.78  .00796 0.9963 161.6 19.9 305'  95
2019 02 20 16  10 47 43.704   +27 31 05.31  .00797 0.9963 161.6 19.9 306'  95
2019 02 20 17  10 47 35.084   +27 30 51.80  .00799 0.9963 161.7 19.9 307'  95
2019 02 20 18  10 47 26.496   +27 30 38.26  .00801 0.9964 161.7 19.9 308'  95
2019 02 20 19  10 47 17.941   +27 30 24.67  .00802 0.9964 161.7 19.9 309'  95
2019 02 20 20  10 47 09.418   +27 30 11.05  .00804 0.9964 161.7 19.9 310'  95
2019 02 20 21  10 47 00.927   +27 29 57.39  .00806 0.9964 161.7 19.9 311'  95
2019 02 20 22  10 46 52.468   +27 29 43.70  .00808 0.9965 161.7 20.0 312'  95
2019 02 20 23  10 46 44.041   +27 29 29.97  .00809 0.9965 161.8 20.0 313'  95
2019 02 21 00  10 46 35.645   +27 29 16.21  .00811 0.9965 161.8 20.0 314'  95
2019 02 21 01  10 46 27.280   +27 29 02.41  .00813 0.9965 161.8 20.0 315'  95
2019 02 21 02  10 46 18.945   +27 28 48.57  .00814 0.9966 161.8 20.0 316'  95
2019 02 21 03  10 46 10.641   +27 28 34.70  .00816 0.9966 161.8 20.0 317'  95
2019 02 21 04  10 46 02.368   +27 28 20.80  .00818 0.9966 161.9 20.0 318'  95
2019 02 21 05  10 45 54.124   +27 28 06.86  .00819 0.9966 161.9 20.0 319'  95
2019 02 21 06  10 45 45.910   +27 27 52.89  .00821 0.9967 161.9 20.0 320'  95
2019 02 21 07  10 45 37.725   +27 27 38.88  .00823 0.9967 161.9 20.0 321'  95
2019 02 21 08  10 45 29.569   +27 27 24.84  .00824 0.9967 161.9 20.0 321'  95
2019 02 21 09  10 45 21.443   +27 27 10.76  .00826 0.9967 161.9 20.0 322'  95
2019 02 21 10  10 45 13.345   +27 26 56.66  .00828 0.9968 162.0 20.0 323'  95
2019 02 21 11  10 45 05.275   +27 26 42.52  .00829 0.9968 162.0 20.0 324'  95
2019 02 21 12  10 44 57.234   +27 26 28.34  .00831 0.9968 162.0 20.0 325'  95
2019 02 21 13  10 44 49.221   +27 26 14.14  .00833 0.9968 162.0 20.0 326'  94
2019 02 21 14  10 44 41.235   +27 25 59.90  .00834 0.9969 162.0 20.0 327'  94
2019 02 21 15  10 44 33.277   +27 25 45.63  .00836 0.9969 162.0 20.0 328'  94
2019 02 21 16  10 44 25.347   +27 25 31.32  .00838 0.9969 162.0 20.0 329'  94
2019 02 21 17  10 44 17.443   +27 25 16.99  .00839 0.9969 162.1 20.0 330'  94
2019 02 21 18  10 44 09.566   +27 25 02.62  .00841 0.9970 162.1 20.0 331'  94
2019 02 21 19  10 44 01.716   +27 24 48.22  .00842 0.9970 162.1 20.0 332'  94
2019 02 21 20  10 43 53.892   +27 24 33.79  .00844 0.9970 162.1 20.0 333'  94
2019 02 21 21  10 43 46.095   +27 24 19.33  .00846 0.9970 162.1 20.0 334'  94
2019 02 21 22  10 43 38.323   +27 24 04.83  .00847 0.9971 162.1 20.0 335'  94
2019 02 21 23  10 43 30.577   +27 23 50.31  .00849 0.9971 162.1 20.1 336'  94
2019 02 22 00  10 43 22.857   +27 23 35.75  .00851 0.9971 162.1 20.1 337'  94
2019 02 22 01  10 43 15.162   +27 23 21.16  .00852 0.9971 162.1 20.1 338'  94
2019 02 22 02  10 43 07.493   +27 23 06.55  .00854 0.9972 162.2 20.1 338'  94
2019 02 22 03  10 42 59.848   +27 22 51.90  .00856 0.9972 162.2 20.1 339'  94
2019 02 22 04  10 42 52.228   +27 22 37.22  .00857 0.9972 162.2 20.1 340'  94
2019 02 22 05  10 42 44.633   +27 22 22.51  .00859 0.9972 162.2 20.1 341'  94
2019 02 22 06  10 42 37.062   +27 22 07.76  .00860 0.9973 162.2 20.1 342'  94
2019 02 22 07  10 42 29.516   +27 21 52.99  .00862 0.9973 162.2 20.1 343'  94
2019 02 22 08  10 42 21.993   +27 21 38.19  .00864 0.9973 162.2 20.1 344'  94
2019 02 22 09  10 42 14.494   +27 21 23.36  .00865 0.9973 162.2 20.1 345'  94
2019 02 22 10  10 42 07.019   +27 21 08.49  .00867 0.9974 162.2 20.1 346'  94
2019 02 22 11  10 41 59.568   +27 20 53.60  .00869 0.9974 162.2 20.1 347'  94
2019 02 22 12  10 41 52.140   +27 20 38.67  .00870 0.9974 162.3 20.1 348'  94
2019 02 22 13  10 41 44.734   +27 20 23.72  .00872 0.9975 162.3 20.1 348'  94